When you browse on this site, cookies collect data to enhance your experience and personalize the content and advertising you see.
Visit our Privacy Policy to learn more. By continuing to use the site, you agree to this use of cookies and data.
  • In Spain
  • List of Countries
  • For 7 days
  • Water Temperature
  • Satellite Maps
  • Weather Map
  • Weather Widgets
  • user-avatar
    Login

    Hourly Weather Ondjiwa

    Today, 20 January, Sunday

    Time Temperature Precipitation Wind Pressure Humidity
    00:00 +22°C° 1.4 mm 4 mps 667 mmHg 73%
    01:00 +21°C° 1.4 mm 3 mps 668 mmHg 79%
    02:00 +21°C° 0.5 mm 2 mps 667 mmHg 81%
    03:00 +21°C° 0.5 mm 2 mps 667 mmHg 82%
    04:00 +22°C° 0.5 mm 1 mps 667 mmHg 83%
    05:00 +22°C° 0.2 mm 1 mps 667 mmHg 82%
    06:00 +22°C° 0.2 mm 1 mps 667 mmHg 81%
    07:00 +22°C° 0.2 mm 1 mps 668 mmHg 80%
    08:00 +23°C° 0 mm 1 mps 668 mmHg 75%
    09:00 +25°C° 0 mm 1 mps 668 mmHg 70%
    10:00 +26°C° 0 mm 1 mps 669 mmHg 65%
    11:00 +26°C° 0 mm 1 mps 668 mmHg 61%
    12:00 +27°C° 0 mm 2 mps 668 mmHg 58%
    13:00 +28°C° 0 mm 2 mps 668 mmHg 55%
    14:00 +29°C° 0 mm 2 mps 667 mmHg 53%
    15:00 +29°C° 0 mm 2 mps 667 mmHg 51%
    16:00 +29°C° 0 mm 2 mps 666 mmHg 50%
    17:00 +29°C° 0 mm 2 mps 666 mmHg 52%
    18:00 +28°C° 0 mm 1 mps 666 mmHg 54%
    19:00 +27°C° 0 mm 1 mps 666 mmHg 56%
    20:00 +27°C° 0 mm 1 mps 667 mmHg 58%
    21:00 +26°C° 0 mm 1 mps 667 mmHg 59%
    22:00 +26°C° 0 mm 2 mps 668 mmHg 61%
    23:00 +25°C° 1.2 mm 2 mps 667 mmHg 67%

    Tomorrow, 21 January, Monday

    Time Temperature Precipitation Wind Pressure Humidity
    00:00 +24°C° 1.2 mm 2 mps 667 mmHg 74%
    01:00 +23°C° 1.2 mm 2 mps 667 mmHg 81%
    02:00 +23°C° 0.2 mm 1 mps 667 mmHg 81%
    03:00 +23°C° 0.2 mm 1 mps 667 mmHg 80%
    04:00 +23°C° 0.2 mm 1 mps 667 mmHg 80%
    05:00 +23°C° 0 mm 1 mps 668 mmHg 78%
    06:00 +24°C° 0 mm 1 mps 668 mmHg 75%
    07:00 +22°C° 0 mm 0 mps 668 mmHg 72%
    08:00 +26°C° 0 mm 1 mps 669 mmHg 65%
    09:00 +28°C° 0 mm 1 mps 669 mmHg 57%
    10:00 +29°C° 0 mm 2 mps 670 mmHg 49%
    11:00 +30°C° 0 mm 2 mps 669 mmHg 46%
    12:00 +31°C° 0 mm 2 mps 669 mmHg 44%
    13:00 +32°C° 0 mm 2 mps 668 mmHg 42%
    14:00 +32°C° 0 mm 2 mps 668 mmHg 41%
    15:00 +32°C° 0 mm 2 mps 667 mmHg 40%
    16:00 +32°C° 0 mm 2 mps 667 mmHg 40%
    17:00 +31°C° 0 mm 2 mps 667 mmHg 43%
    18:00 +30°C° 0 mm 2 mps 667 mmHg 47%
    19:00 +29°C° 0 mm 1 mps 667 mmHg 50%
    20:00 +28°C° 0 mm 1 mps 667 mmHg 51%
    21:00 +28°C° 0 mm 1 mps 667 mmHg 53%
    22:00 +28°C° 0 mm 1 mps 668 mmHg 54%
    23:00 +27°C° 0 mm 1 mps 668 mmHg 56%

    Day after tomorrow, 22 January, Tuesday

    Time Temperature Precipitation Wind Pressure Humidity
    00:00 +27°C° 0 mm 1 mps 667 mmHg 57%
    01:00 +26°C° 0 mm 1 mps 667 mmHg 58%
    02:00 +26°C° 0 mm 1 mps 667 mmHg 61%
    03:00 +25°C° 0 mm 2 mps 667 mmHg 64%
    04:00 +24°C° 0 mm 2 mps 666 mmHg 67%
    05:00 +24°C° 0 mm 2 mps 667 mmHg 67%
    06:00 +24°C° 0 mm 1 mps 667 mmHg 68%
    07:00 +25°C° 0 mm 1 mps 668 mmHg 68%
    08:00 +27°C° 0 mm 1 mps 668 mmHg 60%
    09:00 +30°C° 0 mm 1 mps 669 mmHg 51%
    10:00 +32°C° 0 mm 1 mps 670 mmHg 42%
    11:00 +32°C° 0 mm 1 mps 669 mmHg 41%
    12:00 +32°C° 0 mm 1 mps 668 mmHg 39%
    13:00 +33°C° 0 mm 1 mps 668 mmHg 37%
    14:00 +33°C° 0 mm 1 mps 667 mmHg 36%
    15:00 +33°C° 0 mm 1 mps 667 mmHg 36%
    16:00 +33°C° 0 mm 1 mps 666 mmHg 36%
    17:00 +32°C° 0 mm 1 mps 666 mmHg 39%
    18:00 +31°C° 0 mm 2 mps 666 mmHg 43%
    19:00 +30°C° 0 mm 2 mps 666 mmHg 46%
    20:00 +29°C° 0 mm 2 mps 666 mmHg 49%
    21:00 +28°C° 0 mm 1 mps 667 mmHg 52%
    22:00 +27°C° 0 mm 1 mps 667 mmHg 55%
    23:00 +27°C° 0 mm 2 mps 667 mmHg 56%

    23 January, Wednesday

    Time Temperature Precipitation Wind Pressure Humidity
    00:00 +26°C° 0 mm 2 mps 667 mmHg 58%
    01:00 +26°C° 0 mm 3 mps 666 mmHg 59%
    02:00 +26°C° 0 mm 3 mps 666 mmHg 58%
    03:00 +26°C° 0 mm 2 mps 666 mmHg 57%
    04:00 +26°C° 0 mm 2 mps 666 mmHg 55%
    05:00 +26°C° 0 mm 2 mps 667 mmHg 53%
    06:00 +26°C° 0 mm 3 mps 667 mmHg 50%
    07:00 +26°C° 0 mm 3 mps 667 mmHg 47%
    08:00 +28°C° 0 mm 3 mps 668 mmHg 40%
    09:00 +30°C° 0 mm 3 mps 668 mmHg 34%
    10:00 +33°C° 0 mm 3 mps 668 mmHg 28%
    11:00 +35°C° 0 mm 3 mps 668 mmHg 25%
    12:00 +36°C° 0 mm 3 mps 668 mmHg 21%
    13:00 +38°C° 0 mm 3 mps 667 mmHg 18%
    14:00 +38°C° 0 mm 3 mps 667 mmHg 17%
    15:00 +38°C° 0 mm 3 mps 666 mmHg 16%
    16:00 +38°C° 0 mm 3 mps 665 mmHg 15%
    17:00 +36°C° 0 mm 3 mps 665 mmHg 18%
    18:00 +34°C° 0 mm 3 mps 665 mmHg 22%
    19:00 +31°C° 0 mm 3 mps 665 mmHg 25%
    20:00 +30°C° 0 mm 3 mps 665 mmHg 26%
    21:00 +29°C° 0 mm 2 mps 666 mmHg 26%
    22:00 +28°C° 0 mm 2 mps 666 mmHg 27%
    23:00 +27°C° 0 mm 2 mps 666 mmHg 33%

    24 January, Thursday

    Time Temperature Precipitation Wind Pressure Humidity
    00:00 +26°C° 0 mm 3 mps 665 mmHg 38%
    01:00 +25°C° 0 mm 4 mps 665 mmHg 44%
    02:00 +24°C° 0 mm 3 mps 665 mmHg 46%
    03:00 +24°C° 0 mm 3 mps 665 mmHg 48%
    04:00 +23°C° 0 mm 2 mps 665 mmHg 50%
    05:00 +23°C° 0 mm 2 mps 665 mmHg 50%
    06:00 +24°C° 0 mm 2 mps 666 mmHg 49%
    07:00 +24°C° 0 mm 2 mps 666 mmHg 48%
    08:00 +27°C° 0 mm 2 mps 667 mmHg 40%
    09:00 +30°C° 0 mm 2 mps 667 mmHg 32%
    10:00 +34°C° 0 mm 2 mps 668 mmHg 24%
    11:00 +36°C° 0 mm 2 mps 667 mmHg 21%
    12:00 +37°C° 0 mm 1 mps 667 mmHg 19%
    13:00 +39°C° 0 mm 1 mps 667 mmHg 16%
    14:00 +39°C° 0 mm 1 mps 666 mmHg 16%
    15:00 +39°C° 0 mm 1 mps 666 mmHg 15%
    16:00 +39°C° 0 mm 2 mps 665 mmHg 15%
    17:00 +38°C° 0 mm 2 mps 665 mmHg 17%
    18:00 +36°C° 0 mm 2 mps 665 mmHg 20%
    19:00 +34°C° 0 mm 2 mps 665 mmHg 22%
    20:00 +32°C° 0 mm 1 mps 665 mmHg 24%
    21:00 +31°C° 0 mm 1 mps 666 mmHg 26%
    22:00 +30°C° 0 mm 1 mps 666 mmHg 27%
    23:00 +29°C° 0 mm 2 mps 666 mmHg 30%

    25 January, Friday

    Time Temperature Precipitation Wind Pressure Humidity
    00:00 +29°C° 0 mm 3 mps 666 mmHg 32%
    01:00 +28°C° 0 mm 3 mps 665 mmHg 35%
    02:00 +28°C° 0 mm 3 mps 665 mmHg 37%
    03:00 +27°C° 0 mm 3 mps 665 mmHg 39%
    04:00 +26°C° 0 mm 3 mps 665 mmHg 40%
    05:00 +26°C° 0 mm 3 mps 666 mmHg 42%
    06:00 +26°C° 0 mm 3 mps 666 mmHg 43%
    07:00 +26°C° 0 mm 3 mps 667 mmHg 44%
    08:00 +29°C° 0 mm 3 mps 667 mmHg 39%
    09:00 +31°C° 0 mm 3 mps 668 mmHg 34%
    10:00 +34°C° 0 mm 3 mps 668 mmHg 28%
    11:00 +37°C° 0 mm 2 mps 668 mmHg 25%
    12:00 +39°C° 0 mm 1 mps 668 mmHg 21%
    13:00 +39°C° 0 mm 0 mps 668 mmHg 18%
    14:00 +40°C° 0 mm 1 mps 667 mmHg 19%
    15:00 +39°C° 0 mm 1 mps 666 mmHg 20%
    16:00 +37°C° 0 mm 1 mps 666 mmHg 22%
    17:00 +35°C° 0 mm 1 mps 666 mmHg 24%
    18:00 +34°C° 0 mm 1 mps 666 mmHg 27%
    19:00 +32°C° 0 mm 1 mps 666 mmHg 29%
    20:00 +31°C° 0 mm 2 mps 666 mmHg 33%
    21:00 +30°C° 0 mm 4 mps 667 mmHg 37%
    22:00 +30°C° 0 mm 5 mps 667 mmHg 40%
    23:00 +29°C° 0 mm 5 mps 667 mmHg 44%
    Show more